Regional Weather Roundup
Issued by NWS

Home | Current Version | Previous Version | Text Only | Print | Product List | Glossary On
Versions: 1 2 3 4 5 6 7 8 9 10 11 12 13 14 15 16 17 18 19 20 21 22 23 24 25 26 27 28 29 30 31 32 33 34 35 36 37 38 39 40 41 42 43 44 45 46 47 48 49 50
000
ASUS42 KFFC 301910
RWRGA
WEATHER ROUNDUP FOR GEORGIA
NATIONAL WEATHER SERVICE PEACHTREE CITY GA
300 PM EDT SUN AUG 30 2015

NOTE: "FAIR" INDICATES FEW OR NO CLOUDS BELOW 12,000 FEET WITH NO
SIGNIFICANT WEATHER AND/OR OBSTRUCTIONS TO VISIBILITY.

* = USE WITH CAUTION. THE STATIONS MARKED WITH AN ASTERISK MAY NOT
REPORT WEATHER SUCH AS PRECIPITATION, FOG, OR THUNDER AND ARE NOT
QUALITY CONTROLLED BY NWS.

THE REMARK "TC" DENOTES TEMPERATURE READING IN DEGREES CELSIUS.

GAZ001>058-302000-
NORTH GEORGIA

CITY           SKY/WX    TMP DP  RH WIND       PRES   REMARKS
ATLANTA        PTSUNNY   74  64  71 E13       30.11F
ATHENS         LGT RAIN  67  66  97 E6        30.14F FOG
CHAMBLEE       PTSUNNY   75  65  70 NE10G16   30.12F
PEACHTREE CITY CLOUDY    74  67  78 E7        30.10F
ROME           PTSUNNY   77  65  66 NE10      30.11F
WEST ATLANTA   PTSUNNY   75  64  68 E13       30.11F
GAINESVILLE    CLOUDY    67  65  93 E6        30.17F
CARTERSVILLE   CLOUDY    74  63  68 NE7       30.13F


CITY           SKY/WX    TMP DP  RH WIND       PRES   REMARKS
DALTON*        CLOUDY    73  64  73 CALM      30.14S
LAWRENCEVILLE* PTSUNNY   68  61  77 E9        30.14F
MARIETTA       PTSUNNY   73  63  68 E7        30.12F
KENNESAW*      PTSUNNY   73  61  64 SE12G17   30.14S
BLAIRSVILLE*   LGT RAIN  71  38  29 S6        30.18S
$$

GAZ059>098-102>109-302000-
CENTRAL GEORGIA

CITY           SKY/WX    TMP DP  RH WIND       PRES   REMARKS
AUGUSTA-BUSH   PTSUNNY   82  72  71 E9        30.08F
AUGUSTA-DANIEL PTSUNNY   96  72  45 E10       30.10F HX 104
COLUMBUS       MOSUNNY   83  66  56 NW7       30.04F
MACON          PTSUNNY   80  72  76 NE7       30.07F
ROBINS AFB     PTSUNNY   79  73  83 NE7       30.06F


CITY           SKY/WX    TMP DP  RH WIND       PRES   REMARKS
LAGRANGE*      CLOUDY    80  76  90 NE5       30.08F
SYLVANIA*      PTSUNNY   81  77  89 E9        30.10S
MILLEDGEVILLE* DRIZZLE   72  70  94 CALM      30.09F
$$

GAZ099>101-110>166-302000-
SOUTH GEORGIA

CITY           SKY/WX    TMP DP  RH WIND       PRES   REMARKS
SAVANNAH       TSTM      75  72  90 E15       30.10F FOG
VALDOSTA       PTSUNNY   89  71  55 VRB3      30.01F HX  95
ALMA           PTSUNNY   81  73  76 E14G22    30.04S
ST SIMONS      CLOUDY    77  75  93 E10       30.06F
FT STEWART     CLOUDY    77  73  88 E10G17    30.06F
ALBANY         MOSUNNY   88  70  55 VRB6      30.05F HX  93
HUNTER AFB     RAIN      75  75 100 E13       30.07F FOG
MOODY AFB      PTSUNNY   88  70  55 NW9       30.01F HX  93
BRUNSWICK      CLOUDY    77  75  94 NE9       30.06F


CITY           SKY/WX    TMP DP  RH WIND       PRES   REMARKS
BAINBRIDGE*    SUNNY     90  70  51 NW6       30.03F HX  95
MOULTRIE*      MOSUNNY   88  70  55 SW5       30.04F HX  92
VIDALIA*       PTSUNNY   84  72  65 E9G17     30.04F THUNDER
WAYCROSS*      CLOUDY    84  77  79 E8        30.04F HX  94
DOUGLAS*       SUNNY     90  72  55 CALM      30.04F HX  96
$$



USA.gov is the U.S. government's official web portal to all federal, state and local government web resources and services.